CW0609 Weather Reports


time (UTC)temp
F
wind
direction
speed
knots
gust
knots
rain 1hr
in
rain 24hr
in
rain mn
in
humidity
%
barometer
mb
20260507204607 53 0 0.0 0.0 0.00 1.23 1.23 85 1010.3
20260507203101 53 0 0.0 0.0 0.00 1.23 1.23 87 1010.3
20260507201558 53 0 0.0 0.0 0.00 1.23 1.23 87 1010.7
20260507200054 53 0 0.0 0.0 0.00 1.23 1.23 87 1010.6
20260507194633 53 0 0.0 0.0 0.00 1.23 1.23 87 1010.6
20260507193053 53 0 0.0 0.0 0.00 1.23 1.23 86 1010.6
20260507191600 54 0 0.0 0.0 0.00 1.23 1.23 87 1010.9
20260507190058 54 0 0.0 0.0 0.00 1.23 1.23 87 1010.8
20260507184607 53 0 0.0 0.0 0.00 1.23 1.23 87 1011.1
20260507183110 53 0 0.0 0.0 0.00 1.23 1.23 88 1010.9
20260507181603 53 0 0.0 0.9 0.01 1.23 1.23 88 1011.1
20260507174557 52 0 0.0 0.9 0.01 1.24 1.23 87 1011.2
20260507173058 52 0 0.0 0.9 0.01 1.24 1.23 88 1011.4
20260507171603 53 0 0.0 0.9 0.00 1.23 1.22 89 1011.4
20260507164606 53 0 0.0 0.9 0.00 1.23 1.22 87 1011.8
20260507163106 53 0 0.0 0.9 0.00 1.23 1.22 89 1011.9
20260507161558 53 0 0.0 0.9 0.00 1.23 1.22 89 1011.8
20260507160052 54 0 0.0 0.0 0.00 1.23 1.22 91 1011.9
20260507154559 53 0 0.0 0.0 0.00 1.23 1.22 90 1011.7
20260507153054 54 0 0.0 0.9 0.00 1.23 1.22 91 1011.9
20260507151554 54 0 0.0 0.0 0.00 1.23 1.22 91 1011.9
20260507150059 54 0 0.0 0.0 0.01 1.23 1.22 91 1011.9
20260507144556 54 0 0.0 0.0 0.01 1.29 1.22 91 1011.9
20260507143107 54 0 0.0 0.9 0.01 1.29 1.22 91 1011.6
20260507141555 54 0 0.0 0.0 0.01 1.29 1.22 91 1011.9
20260507140057 55 0 0.0 0.9 0.00 1.28 1.21 91 1011.9
20260507134558 56 0 0.0 0.0 0.00 1.29 1.21 93 1011.9
20260507133100 56 0 0.0 0.9 0.00 1.29 1.21 93 1011.9
20260507131611 56 0 0.0 0.0 0.00 1.29 1.21 93 1011.4
20260507130058 55 0 0.0 0.0 0.00 1.29 1.21 93 1011.4
20260507124553 55 0 0.0 0.0 0.00 1.29 1.21 93 1011.7
20260507123059 56 0 0.0 0.0 0.00 1.29 1.21 93 1011.5
20260507121557 55 0 0.0 0.0 0.00 1.29 1.21 93 1011.2
20260507120058 55 0 0.0 0.0 0.00 1.29 1.21 93 1011.5
20260507114607 55 0 0.0 0.0 0.00 1.29 1.21 93 1011.7
20260507113100 55 0 0.0 0.0 0.05 1.29 1.21 93 1011.5
20260507111600 55 0 0.0 0.0 0.23 1.29 1.21 93 1011.3
20260507110056 55 0 0.0 0.0 0.40 1.29 1.21 92 1011.4
20260507104556 55 0 0.0 0.9 0.71 1.29 1.21 92 1011.1
20260507103100 55 0 0.0 0.9 0.94 1.24 1.16 91 1011.2
20260507101557 56 352 0.0 0.9 0.95 1.05 0.98 91 1010.9
20260507100103 57 0 0.0 1.7 0.79 0.89 0.81 91 1010.8
20260507094554 59 0 0.0 2.6 0.50 0.58 0.50 89 1010.4
20260507093055 63 356 0.9 2.6 0.22 0.30 0.22 87 1010.4
20260507091556 65 0 0.0 0.0 0.02 0.10 0.02 91 1010.0
20260507090056 66 0 0.0 0.0 0.02 0.10 0.02 90 1009.9
20260507084556 66 0 0.0 0.0 0.00 0.08 0.00 90 1009.8
20260507083058 66 0 0.0 0.0 0.00 0.08 0.00 90 1009.7
20260507081554 66 0 0.0 0.0 0.00 0.08 0.00 89 1009.3
20260507080115 66 0 0.0 0.0 0.00 0.08 0.00 89 1009.0
20260507074554 66 0 0.0 1.7 0.00 0.08 0.00 89 1008.6
20260507073054 66 153 0.0 1.7 0.00 0.08 0.00 88 1008.8
20260507071609 67 0 0.0 0.9 0.00 0.08 0.00 88 1009.2
20260507070057 67 0 0.0 1.7 0.00 0.08 0.00 88 1009.7
20260507064555 66 0 0.0 2.6 0.00 0.08 0.00 88 1009.4
20260507063058 66 0 0.0 1.7 0.00 0.08 0.00 87 1009.3
20260507061600 66 99 0.0 0.0 0.00 0.08 0.00 87 1009.2
20260507060059 66 0 0.0 0.0 0.00 0.08 0.00 86 1009.2
20260507054554 67 0 0.0 0.9 0.00 0.08 0.00 86 1009.4
20260507053120 67 81 0.0 2.6 0.00 0.08 0.00 86 1009.5
20260507051605 67 0 0.0 1.7 0.00 0.08 0.00 86 1009.6
20260507050059 67 0 0.0 5.2 0.00 0.08 0.00 85 1010.2
20260507044557 67 89 0.0 2.6 0.00 0.08 0.00 84 1010.8
20260507043059 67 0 0.0 0.0 0.00 0.08 0.00 84 1011.0
20260507041557 67 0 0.0 1.7 0.00 0.08 0.00 84 1010.7
20260507040100 67 0 0.0 0.0 0.00 0.08 0.00 84 1010.6
20260507034556 67 0 0.0 1.7 0.00 0.08 0.08 85 1010.3
20260507033101 67 0 0.0 0.9 0.00 0.08 0.08 85 1010.3
20260507031556 66 172 0.0 0.9 0.00 0.08 0.08 86 1009.9
20260507030059 66 0 0.0 0.9 0.00 0.08 0.08 86 1010.1
20260507024603 66 139 0.0 2.6 0.00 0.08 0.08 86 1009.8
20260507023054 66 0 0.0 0.0 0.00 0.08 0.08 86 1010.1
20260507021601 66 0 0.0 0.9 0.00 0.08 0.08 86 1010.2
20260507020057 66 0 0.0 0.9 0.00 0.08 0.08 87 1010.6
20260507014612 65 226 0.0 0.0 0.00 0.08 0.08 88 1010.6
20260507013056 65 0 0.0 0.0 0.00 0.08 0.08 87 1010.5
20260507011604 65 0 0.0 0.0 0.00 0.08 0.08 86 1010.3
20260507010104 66 0 0.0 0.0 0.00 0.08 0.08 86 1010.2
20260507004606 67 0 0.0 0.0 0.00 0.08 0.08 84 1010.1
20260507003055 67 0 0.0 0.0 0.00 0.08 0.08 83 1010.3
20260507001557 68 0 0.0 0.9 0.00 0.08 0.08 82 1010.3
20260507000057 69 0 0.0 0.0 0.00 0.08 0.08 81 1010.6
20260506234554 69 0 0.0 1.7 0.00 0.08 0.08 80 1010.2
20260506233058 70 0 0.0 1.7 0.00 0.08 0.08 80 1009.9
20260506231558 70 0 0.0 0.9 0.00 0.08 0.08 80 1010.0
20260506230059 70 0 0.9 2.6 0.00 0.08 0.08 79 1010.0
20260506224553 70 0 0.0 1.7 0.00 0.08 0.08 78 1010.0
20260506223100 70 0 0.0 0.0 0.00 0.08 0.08 78 1009.9
20260506221555 71 0 0.0 1.7 0.00 0.08 0.08 78 1010.0
20260506220056 71 208 0.0 3.5 0.00 0.08 0.08 77 1009.8
20260506214604 71 49 0.0 3.5 0.00 0.08 0.08 76 1009.9
20260506213053 71 0 0.0 3.5 0.00 0.08 0.08 75 1010.1
20260506211603 70 223 0.9 4.3 0.00 0.08 0.08 75 1010.3
20260506210056 70 89 0.9 3.5 0.00 0.08 0.08 77 1010.1